#timestamp,LO_Frequency,Hit,StdDev 
1582281795.7,286046981.5,P
1582281815.6,286046981.6,P
1582281835.4,286046981.4,P
1582281855.3,286046981.3,Y
1582281875.1,286046998.8,P
1582281895.8,286046998.8,N
1582281915.7,286046998.6,N
1582281935.5,286046998.4,N
1582281955.4,286046998.8,N
1582281975.2,286046999.0,N
1582281995.0,286046999.4,N
1582281995.9,286046999.4,N
1582282015.8,286046998.6,N
1582282035.6,286046998.1,N
1582282055.4,286046998.6,N
1582282075.3,286047000.7,N
1582282095.1,286047000.0,N
1582282115.9,286047002.4,N
1582282135.7,286047002.4,N
1582282155.5,286046999.8,N
1582282175.4,286047000.5,N
1582282195.2,286047000.8,N
1582282215.0,286046999.1,N
1582282215.9,286046999.1,N
1582282235.8,286046998.8,N
1582282255.6,286046999.3,N
1582282275.5,286046999.3,N
1582282295.3,286046999.5,N
1582282315.1,286046999.0,N
1582282335.9,286047000.3,N
1582282355.7,286047000.2,N
1582282375.6,286046999.8,N
1582282395.4,286047000.8,N
1582282415.2,286047001.1,N
1582282435.1,286047002.8,N
1582282436.0,286047002.8,N
1582282455.8,286046999.7,N
1582282475.6,286047000.5,N
1582282495.5,286047000.1,N
1582282515.3,286046999.3,N
1582282535.2,286046994.9,Y
1582282555.9,286046994.1,P
1582282575.7,286046991.9,N
1582282595.6,286046992.4,N
1582282615.4,286046994.8,N
1582282635.2,286046993.6,N
1582282655.1,286046994.5,N
1582282656.0,286046994.5,N
1582282675.8,286046995.7,N
1582282695.7,286046995.7,N
1582282715.5,286046994.2,N
1582282735.3,286046992.3,Y
1582282755.2,286046999.5,P
1582282775.0,286046996.5,N
1582282775.9,286046996.5,N
1582282795.8,286046996.9,N
